Wind_Speed
11 11 11 11 10 11 11 11 11 11 12 12 13 13 13 13 14 14 14 13 13 13 13 13 12 12 11 10 10 10 10 10 10 9 9 8 8 8 8 7 7 7 7
13 13 13 12 12 12 12 12 11 12 12 13 13 13 14 14 14 15 15 15 14 14 14 13 13 12 12 11 11 11 11 11 11 10 10 10 10 9 9 9 8 8 8
14 14 15 14 14 13 13 13 13 13 13 14 14 14 14 15 15 15 15 15 15 14 15 15 14 14 13 12 12 12 12 12 12 12 11 11 11 11 11 10 10 10 9
15 16 16 16 15 15 15 15 14 14 15 15 15 15 15 15 15 15 15 15 15 15 15 15 16 15 15 14 14 14 13 13 13 13 12 12 11 11 11 11 11 11 11
17 17 17 16 16 16 16 16 16 16 16 16 16 16 16 16 16 16 16 16 16 16 16 16 16 16 16 16 15 15 15 14 14 15 14 14 13 12 12 12 12 12 12
19 18 18 18 17 17 17 17 17 17 17 17 17 17 17 17 16 16 16 17 16 16 16 17 17 18 17 17 16 16 16 16 16 15 15 15 15 14 14 14 13 13 14
21 20 20 19 19 19 19 18 18 18 18 18 19 19 18 18 18 17 17 17 17 17 17 17 18 18 18 18 17 17 17 16 16 16 16 16 16 16 16 15 14 14 14
23 23 22 21 21 21 21 21 20 20 20 20 20 20 20 19 19 19 18 18 18 18 19 18 18 19 19 19 19 18 18 17 17 18 18 17 17 17 16 16 15 15 15
25 25 24 23 23 23 23 22 22 22 22 22 22 22 22 21 21 20 20 20 19 19 20 20 20 20 20 20 20 20 19 18 18 18 19 19 18 18 18 17 17 16 16
26 26 26 25 25 25 25 24 24 24 24 24 24 24 24 23 23 22 22 22 22 21 21 21 21 21 21 21 21 21 21 21 20 20 20 20 19 19 19 19 19 18 18
28 28 27 27 27 27 27 26 26 26 25 25 25 25 25 25 25 24 24 24 24 24 23 23 23 23 23 22 22 22 22 22 21 22 22 21 21 21 21 21 21 20 21
29 29 29 29 29 28 28 28 28 27 27 27 27 27 26 26 26 26 26 26 26 25 25 24 25 24 24 24 24 24 23 23 23 23 24 24 23 23 23 23 23 23 22
30 30 30 30 30 30 30 29 29 29 29 28 28 28 28 28 28 28 28 27 27 27 27 26 26 26 26 26 26 26 25 25 25 25 25 26 26 25 25 25 25 25 24
32 32 32 31 31 31 31 31 30 30 30 30 30 30 30 30 30 30 29 29 29 29 29 29 28 28 28 28 28 28 28 28 27 27 26 27 27 27 26 27 27 27 26
33 33 33 33 33 33 33 33 32 32 32 32 32 32 32 32 32 32 31 31 31 31 31 31 31 30 30 31 30 31 31 30 30 29 28 28 28 28 29 28 28 28 28
35 35 35 35 35 34 34 35 35 35 35 35 34 34 34 34 34 34 33 33 33 34 33 33 33 33 33 33 33 33 33 33 33 32 32 31 30 30 30 30 30 30 30
36 36 36 36 36 36 36 36 37 37 36 37 36 36 36 35 35 35 35 35 35 36 36 35 35 35 35 36 36 36 36 36 36 35 35 34 34 33 32 32 32 32 32
37 37 37 38 37 37 37 37 37 38 38 38 38 38 38 38 37 37 37 36 37 37 37 37 37 37 37 37 38 38 38 38 38 37 37 37 36 35 34 34 34 33 34
37 37 37 37 37 37 37 38 38 39 39 39 39 39 39 39 39 39 38 38 38 38 38 38 38 38 38 39 39 40 39 40 40 39 39 38 38 37 37 37 36 35 35
38 38 38 38 38 38 38 38 39 39 40 40 39 39 39 40 40 40 40 39 39 39 39 39 39 39 39 39 40 40 40 40 40 40 40 39 39 39 39 39 39 38 37
39 39 39 39 39 39 39 39 39 40 40 40 40 40 40 41 41 41 41 40 40 40 40 40 40 40 40 41 41 41 41 41 41 41 41 41 40 41 41 41 40 40 39
39 39 40 40 40 40 40 40 40 40 40 41 41 41 41 41 42 42 42 41 41 41 41 40 40 41 41 41 41 42 42 42 42 42 42 42 42 42 42 42 42 42 41
40 40 41 41 41 41 41 41 41 41 41 41 41 41 41 42 42 42 42 41 41 41 41 40 41 41 41 41 41 42 42 43 44 44 44 44 44 44 44 44 44 44 43
40 41 41 42 42 42 42 42 42 42 42 42 42 42 42 42 42 42 42 42 42 42 42 42 42 42 42 42 42 42 43 44 44 45 44 45 46 45 45 46 46 45 45
40 41 42 42 42 43 43 43 42 42 43 43 43 43 42 42 42 43 43 44 44 44 44 43 43 44 44 43 43 43 44 45 45 45 45 45 46 46 47 47 47 47 47
40 41 42 42 42 43 43 43 43 43 43 43 43 43 43 43 43 44 44 45 44 44 44 44 44 45 45 44 44 44 45 46 46 47 47 47 47 47 47 48 48 48 48
Wind_Direction
247 246 248 252 254 255 256 259 260 259 257 256 257 256 253 253 252 250 249 248 247 245 245 245 244 248 249 250 250 250 249 249 247 247 246 243 240 238 237 236 238 237 233
250 250 251 254 255 256 257 257 258 258 257 257 256 256 255 255 255 252 250 250 250 250 247 246 246 245 248 249 250 250 250 249 249 247 247 246 243 241 241 242 242 238 236
249 251 252 254 255 256 258 259 260 259 258 258 257 256 256 256 257 257 255 253 254 254 250 247 247 246 246 249 251 252 252 251 251 249 245 245 246 244 244 245 245 241 240
248 250 252 253 254 256 258 260 260 259 259 259 259 259 259 259 259 258 257 255 255 255 253 251 249 248 248 249 253 252 252 252 252 250 248 245 246 244 243 243 243 242 241
249 250 252 252 255 255 257 259 259 260 260 260 260 261 261 262 261 260 257 256 255 255 255 254 252 250 249 250 250 250 250 251 252 251 248 247 245 243 243 243 243 244 243
250 250 251 253 255 256 257 259 261 261 261 261 261 261 263 263 263 261 258 257 256 255 255 254 253 251 250 250 250 249 249 250 251 251 249 247 245 244 245 245 246 247 246
250 250 252 253 255 257 259 260 261 262 262 262 262 262 263 264 263 261 259 257 257 257 257 256 255 252 250 249 250 248 248 248 249 250 250 247 245 247 247 246 245 246 249
252 253 253 253 255 257 260 261 261 260 261 261 262 262 262 262 262 262 261 259 258 259 257 255 254 253 250 249 249 250 250 249 249 249 249 248 247 247 247 247 248 249 251
253 253 252 253 255 257 259 260 260 260 260 260 261 262 262 261 261 260 260 261 260 259 258 256 254 253 251 250 250 251 251 250 251 250 249 249 249 248 247 248 250 251 251
253 254 255 254 256 257 258 259 260 260 260 260 261 261 261 260 260 259 259 260 261 259 259 257 256 254 252 252 252 252 251 250 251 252 250 250 249 250 249 250 251 251 252
253 254 256 257 258 258 259 259 259 260 260 260 261 261 260 259 259 259 259 260 260 260 260 258 258 255 253 254 254 253 252 251 251 252 251 251 251 251 251 251 251 252 253
254 255 257 258 258 259 259 260 259 259 260 260 261 261 260 259 259 260 260 260 259 260 259 258 259 258 257 255 255 255 254 253 253 252 252 253 253 253 253 252 252 253 255
254 255 257 258 258 258 259 260 260 260 260 260 261 261 261 260 260 260 260 260 259 259 259 259 260 259 257 256 256 255 255 255 254 254 253 254 254 254 254 254 254 254 255
254 255 256 257 257 258 259 260 261 262 261 261 262 261 261 261 261 260 259 259 259 259 259 260 260 259 257 256 256 256 256 256 255 254 254 255 255 255 256 257 256 256 255
255 255 256 257 257 258 258 259 261 262 262 262 262 262 262 261 261 260 259 259 259 259 259 258 259 258 256 256 256 257 257 257 256 256 255 256 256 257 257 257 257 257 256
256 256 256 256 258 259 260 260 260 261 261 262 262 262 261 262 261 260 260 259 259 259 258 258 258 258 256 256 256 257 257 257 257 257 257 257 257 258 258 257 258 257 257
256 256 255 256 257 259 260 261 260 260 261 262 262 261 261 261 261 261 260 260 259 259 258 258 258 258 257 257 256 257 257 257 257 257 257 257 258 258 258 259 259 258 258
256 257 257 257 258 259 260 260 261 260 261 262 262 262 261 260 260 260 260 260 261 260 259 259 259 258 257 257 257 257 258 257 257 257 257 257 257 257 259 259 259 259 260
256 256 256 257 258 258 260 261 261 261 261 262 263 263 262 261 260 260 260 261 261 261 260 260 259 258 258 258 258 258 258 258 256 256 257 257 258 258 258 260 260 260 261
256 257 257 257 258 259 260 261 262 263 262 263 263 264 262 261 260 260 260 260 261 261 261 261 260 259 258 258 258 258 258 257 256 256 257 258 258 258 259 259 260 260 260
256 256 257 258 258 260 260 261 262 263 263 263 263 263 262 261 261 260 260 260 260 260 261 261 261 260 259 259 259 258 257 257 256 256 257 258 259 258 258 259 259 260 261
256 256 257 258 259 260 261 261 262 263 263 263 263 263 262 261 261 260 259 259 259 260 261 261 260 260 259 259 259 258 257 257 257 257 258 258 258 258 258 259 259 260 261
257 257 258 259 260 260 261 261 262 263 264 263 264 264 263 262 262 260 259 259 260 260 261 261 260 259 258 259 259 259 258 257 258 258 259 258 258 258 258 259 259 260 261
257 258 258 259 260 261 261 261 261 262 263 264 264 264 263 262 261 260 259 259 260 261 261 261 260 259 258 259 260 260 258 258 259 259 259 259 258 258 258 259 259 259 260
258 258 259 260 260 261 261 261 261 262 263 263 263 263 262 262 261 260 260 260 260 261 261 261 260 259 259 259 261 260 259 258 259 259 260 260 259 259 258 258 259 260 261
259 258 259 260 261 260 261 261 261 262 263 263 263 263 262 261 261 261 261 260 261 261 261 261 261 260 260 260 261 261 260 259 260 260 260 260 260 260 259 259 260 261 261
Height
5826 5826 5827 5827 5828 5828 5829 5829 5829 5830 5830 5831 5831 5831 5832 5832 5832 5833 5833 5833 5834 5834 5835 5835 5835 5836 5836 5837 5837 5838 5838 5838 5839 5840 5840 5841 5842 5842 5843 5843 5844 5844 5844
5824 5824 5825 5825 5825 5826 5826 5827 5827 5828 5828 5828 5829 5829 5830 5830 5830 5830 5831 5831 5832 5832 5832 5833 5833 5834 5834 5835 5835 5836 5836 5837 5838 5838 5839 5840 5840 5841 5841 5842 5842 5843 5843
5821 5822 5822 5823 5823 5823 5824 5825 5825 5825 5826 5826 5827 5827 5827 5827 5828 5828 5828 5829 5829 5829 5830 5830 5831 5832 5832 5833 5833 5834 5835 5835 5836 5837 5837 5838 5839 5839 5840 5840 5841 5841 5841
5818 5819 5819 5820 5820 5821 5821 5822 5822 5822 5823 5823 5824 5824 5825 5825 5825 5825 5825 5826 5826 5827 5827 5827 5828 5829 5830 5831 5831 5832 5832 5833 5834 5835 5835 5836 5837 5837 5838 5838 5839 5839 5840
5815 5815 5816 5817 5817 5817 5818 5818 5819 5819 5820 5820 5821 5821 5822 5822 5822 5822 5823 5823 5823 5824 5824 5825 5825 5826 5827 5828 5829 5829 5830 5831 5831 5832 5833 5834 5835 5835 5836 5836 5837 5837 5838
5811 5812 5813 5813 5814 5814 5815 5815 5816 5816 5816 5817 5818 5818 5818 5819 5819 5819 5819 5820 5820 5821 5821 5822 5822 5823 5824 5825 5826 5826 5827 5828 5829 5830 5830 5831 5832 5833 5833 5834 5835 5835 5836
5807 5808 5809 5809 5810 5810 5811 5811 5812 5812 5813 5813 5814 5814 5815 5815 5815 5816 5816 5816 5817 5817 5818 5818 5819 5820 5821 5822 5822 5823 5824 5825 5826 5827 5828 5829 5830 5830 5831 5831 5832 5833 5833
5803 5804 5804 5805 5806 5806 5807 5807 5808 5808 5809 5809 5809 5810 5811 5811 5812 5812 5812 5813 5813 5814 5814 5815 5815 5816 5817 5818 5819 5820 5821 5822 5822 5823 5824 5825 5826 5827 5828 5829 5829 5830 5830
5798 5798 5799 5800 5801 5802 5802 5803 5803 5804 5804 5805 5805 5805 5806 5807 5807 5808 5808 5809 5809 5810 5810 5811 5812 5813 5813 5814 5815 5816 5817 5818 5819 5820 5821 5822 5823 5824 5825 5826 5826 5827 5827
5792 5793 5794 5795 5796 5796 5797 5797 5798 5798 5799 5799 5800 5801 5801 5802 5802 5803 5804 5804 5805 5805 5806 5807 5808 5808 5809 5810 5811 5812 5813 5814 5815 5816 5817 5818 5819 5820 5821 5822 5823 5823 5824
5787 5787 5788 5789 5790 5791 5791 5792 5792 5793 5793 5794 5794 5795 5796 5796 5797 5798 5798 5799 5800 5800 5801 5802 5803 5804 5805 5806 5807 5808 5809 5810 5811 5812 5813 5814 5815 5816 5817 5818 5818 5819 5820
5781 5781 5782 5783 5783 5784 5785 5786 5786 5787 5787 5788 5788 5789 5790 5790 5791 5792 5792 5793 5794 5795 5796 5797 5797 5798 5800 5801 5802 5803 5804 5805 5806 5807 5808 5809 5810 5811 5812 5813 5814 5815 5816
5774 5775 5775 5776 5777 5777 5778 5779 5780 5780 5781 5781 5782 5782 5783 5784 5785 5785 5786 5787 5788 5789 5790 5791 5792 5793 5794 5795 5796 5797 5798 5800 5801 5802 5803 5804 5805 5806 5807 5808 5809 5810 5811
5766 5767 5768 5769 5770 5770 5771 5772 5772 5773 5774 5775 5775 5775 5776 5777 5778 5778 5779 5780 5781 5782 5783 5784 5785 5786 5787 5788 5790 5791 5792 5794 5795 5796 5797 5798 5799 5800 5801 5802 5803 5804 5805
5759 5760 5760 5761 5762 5763 5763 5764 5765 5765 5766 5767 5767 5768 5769 5769 5770 5771 5772 5773 5774 5775 5776 5777 5778 5779 5780 5781 5782 5784 5785 5787 5788 5789 5790 5792 5793 5794 5795 5796 5797 5798 5799
5750 5751 5752 5753 5754 5754 5755 5756 5756 5757 5758 5759 5759 5760 5761 5761 5762 5763 5764 5765 5766 5767 5768 5769 5770 5771 5772 5774 5775 5776 5777 5779 5780 5782 5783 5785 5786 5787 5788 5789 5790 5791 5792
5741 5742 5743 5744 5745 5746 5746 5747 5747 5748 5749 5750 5751 5751 5752 5753 5753 5754 5755 5756 5757 5758 5759 5760 5761 5762 5764 5765 5766 5767 5769 5770 5772 5774 5775 5777 5778 5779 5780 5781 5782 5784 5785
5732 5733 5734 5735 5736 5737 5737 5738 5738 5739 5740 5740 5741 5742 5742 5743 5744 5745 5746 5746 5747 5748 5749 5750 5751 5753 5754 5755 5757 5758 5760 5761 5763 5764 5766 5768 5769 5771 5772 5773 5775 5775 5777
5723 5724 5725 5726 5727 5727 5728 5728 5729 5729 5730 5730 5731 5731 5732 5733 5734 5735 5736 5736 5737 5738 5739 5740 5741 5743 5744 5745 5747 5748 5750 5751 5753 5755 5757 5758 5760 5761 5763 5764 5766 5767 5768
5713 5714 5715 5716 5717 5718 5718 5719 5719 5719 5720 5720 5720 5721 5721 5722 5723 5724 5725 5726 5727 5728 5729 5730 5731 5733 5734 5735 5737 5738 5739 5741 5743 5745 5747 5748 5750 5751 5753 5755 5756 5758 5759
5703 5704 5706 5707 5707 5708 5709 5709 5710 5710 5710 5710 5710 5710 5711 5711 5712 5713 5714 5715 5717 5718 5719 5720 5721 5722 5723 5725 5726 5728 5729 5731 5733 5735 5737 5739 5740 5742 5743 5745 5746 5748 5749
5693 5694 5695 5696 5697 5698 5699 5699 5699 5699 5699 5700 5699 5699 5700 5700 5701 5702 5703 5705 5706 5707 5708 5709 5710 5711 5712 5714 5715 5716 5718 5721 5722 5724 5726 5728 5730 5731 5732 5734 5735 5737 5738
5683 5684 5685 5686 5687 5687 5688 5688 5688 5688 5688 5689 5689 5689 5689 5689 5690 5691 5692 5694 5695 5696 5697 5698 5700 5701 5702 5703 5704 5706 5707 5709 5711 5714 5715 5717 5718 5719 5721 5722 5724 5725 5727
5672 5673 5674 5674 5675 5676 5676 5676 5677 5678 5678 5679 5679 5678 5678 5678 5679 5680 5681 5682 5684 5685 5686 5688 5689 5690 5691 5693 5694 5695 5697 5698 5700 5702 5704 5705 5706 5708 5709 5711 5712 5714 5715
5661 5661 5662 5663 5663 5664 5664 5665 5666 5666 5667 5667 5667 5667 5667 5667 5668 5668 5669 5671 5672 5674 5675 5676 5677 5679 5680 5681 5683 5684 5685 5687 5688 5690 5691 5693 5694 5696 5697 5698 5700 5702 5703
5649 5649 5650 5651 5651 5652 5652 5653 5654 5654 5655 5655 5655 5656 5656 5656 5656 5657 5658 5659 5661 5662 5663 5664 5666 5667 5668 5670 5671 5672 5674 5675 5676 5678 5679 5681 5682 5684 5685 5686 5687 5689 5690